Location: Ostrava
(49.8330°N, 18.2830°E)
Time: 16:02:26
(UTC+02:00)

Iridium 7 - Visible Passes

Search period start: 02 September 2014 00:00
Search period end: 12 September 2014 00:00
Orbit: 776 x 779 km, 86.4° (Epoch: 01 September)

Date Brightness Start Highest point End Pass type
(mag) Time Alt. Az. Time Alt. Az. Time Alt. Az.
02 Sep 6.2 03:25:12 21° SSE 03:28:32 51° E 03:33:34 10° NNE visible
02 Sep 6.7 05:05:42 12° SW 05:09:33 25° WNW 05:13:51 10° NNW visible
03 Sep 7.1 02:52:11 18° SE 02:55:11 30° E 02:59:42 10° NNE visible
03 Sep 6.0 04:32:41 21° SW 04:35:46 41° WNW 04:40:42 10° N visible
04 Sep 7.8 02:19:09 13° ESE 02:21:57 19° ENE 02:25:28 10° NE visible
04 Sep 5.5 03:59:39 32° SSW 04:02:06 70° W 04:07:20 10° N visible
05 Sep 8.2 01:47:37 10° E 01:48:51 11° ENE 01:50:04 10° ENE visible
05 Sep 5.7 03:26:35 38° SSE 03:28:34 71° E 03:33:46 10° N visible
05 Sep 7.0 05:07:05 13° WSW 05:09:52 19° WNW 05:13:30 10° NNW visible
06 Sep 6.5 02:53:30 32° SE 02:55:08 41° E 03:00:01 10° NNE visible
06 Sep 6.4 04:34:00 23° WSW 04:36:00 30° WNW 04:40:35 10° NNW visible
07 Sep 7.3 02:20:25 22° ESE 02:21:50 25° E 02:26:01 10° NNE visible
07 Sep 5.7 04:00:54 40° SW 04:02:15 50° W 04:07:20 10° N visible
08 Sep 7.9 01:47:18 14° E 01:48:39 15° ENE 01:51:33 10° NE visible
08 Sep 5.4 03:27:47 64° SSW 03:28:38 85° W 03:33:53 10° N visible
08 Sep 7.3 05:08:17 12° W 05:10:14 14° WNW 05:12:53 10° NW visible
09 Sep 5.9 02:54:39 55° ESE 02:55:08 57° E 03:00:15 10° N visible
09 Sep 6.8 04:35:08 21° W 04:36:16 23° WNW 04:40:21 10° NNW visible
10 Sep 6.8 02:21:30 34° E 02:21:46 34° E 02:26:25 10° NNE visible
10 Sep 6.1 04:01:59 36° W 04:02:26 37° WNW 04:07:17 10° N visible
11 Sep 7.5 01:48:20 21° E 01:48:31 21° ENE 01:52:17 10° NNE visible
11 Sep 5.5 03:28:49 62° WNW 03:28:49 62° WNW 03:33:56 10° N visible
